STARLINK-36309

Last updated on Sun Apr 12 2026 00:02:08 GMT+0000 (Coordinated Universal Time)

1 68325U 26059E 26101.50082029 .00230833 00000+0 11374-2 0 9998 2 68325 53.1575 198.4198 0000845 72.4809 287.6306 15.80962579 3163
UTC large
Height (km)
Speed (km/s)
/
Latitude / Longitude
Inclination (degrees)
Orbital Period (minutes)
Azimuth
Elevation
Range (km)
Doppler Factor

Next 0 passes for location: London (51.5072 / 0.1276)

Sorry there are no passes over London.
STARLINK-36309